Terminal Aerodrome Forecast
Issued by NWS

Current Version | Previous Version | Graphics & Text | Print | Product List | Glossary On
Versions: 1 2 3 4 5 6 7 8 9 10 11 12 13 14 15 16 17 18 19 20 21 22 23 24 25 26 27 28 29 30 31
039
FTUS41 KRNK 032056 AAB
TAFLWB
TAF AMD
KLWB 032056Z 0321/0418 VRB04KT P6SM SCT005 SCT015
      TEMPO 0321/0324 2SM BR OVC015
     FM040000 VRB03KT 1SM -SHRA BR OVC005
     FM040800 29006KT P6SM -SHSN OVC015
     FM041500 30010KT P6SM BKN025=

USA.gov is the U.S. government's official web portal to all federal, state and local government web resources and services.